User: anonymous   Login
Location: Unspecified
(0.0000°N, 0.0000°E)
Time: 22:46:12
(UTC+00:00)
Language:

STARLINK-34976 - Orbit

View from above orbital plane
View from above orbital plane
View from above satellite
View from above satellite

Ground track
Ground track

The orbit is defined by the following mean orbital elements,

1 65209U          26145.46576031 +.00000000 +00000-0 +83951-3 0 00004
2 65209  53.1570 155.5155 0001279  52.0806 308.0312 15.34410179    04
Epoch (UTC): 25 May 2026 11:10:41
Eccentricity: 0.0001279
inclination: 53.1570°
perigee height: 462 km
apogee height: 464 km
right ascension of ascending node: 155.5155°
argument of perigee: 52.0806°
revolutions per day: 15.34410179
mean anomaly at epoch: 308.0312°

The dashed part of the orbit path shows where the satellite is in the earth's shadow,  

DLR